Kahului, HI

12:56 PM HST on February 19, 2017 (GMT -1000)
Kahului

Weather History for PHOG - March, 2013

Change the Weather History Date:

Wednesday, March 20, 2013

  Actual Average Record
Temperature  
Mean Temperature 72 °F 73 °F  
Max Temperature 83 °F 82 °F 90 °F (1952)
Min Temperature 61 °F 65 °F 57 °F (1983)
Degree Days  
Heating Degree Days 0 0  
Month to date heating degree days 0 0  
Since 1 July heating degree days 0 0  
Cooling Degree Days 7 8  
Month to date cooling degree days 141 152  
Year to date cooling degree days 574 561  
Growing Degree Days 21 (Base 50)    
Moisture  
Dew Point 64 °F    
Average Humidity 78    
Maximum Humidity 97    
Minimum Humidity 58    
Precipitation  
Precipitation 0.00 in 0.08 in 1.06 in (1986)
Month to date precipitation 0.84 1.56  
Year to date precipitation 5.79 6.32  
Snow  
Snow 0.00 in - - ()
Month to date snowfall 0.0  
Since 1 July snowfall 0.0  
Snow Depth 0.00 in    
Sea Level Pressure  
Sea Level Pressure 30.04 in    
Wind  
Wind Speed 6 mph (SSE)    
Max Wind Speed 17 mph    
Max Gust Speed 22 mph    
Visibility 10 miles    
Events      
T = Trace of Precipitation, MM = Missing Value Source: NWS Daily Summary

Daily Weather History Graph

Daily Weather History Graph

Search for Another Location

Airport or City:

Trip Planner

Search our weather history database for the weather conditions in past years. The results will help you decide how hot, cold, wet, or windy it might be!

Date:

Astronomy

Mar. 20, 2013 Rise Set
Actual Time 6:29 AM HST 6:36 PM HST
Civil Twilight 6:07 AM HST 6:59 PM HST
Nautical Twilight 5:41 AM HST 7:24 PM HST
Astronomical Twilight 5:15 AM HST 7:50 PM HST
Moon 1:00 PM HST (3/20) 1:37 AM HST (3/20)
Length of Visible Light 12h 51m
Length of Day
12h 07m
First Quarter, 61% of the Moon is Illuminated
Mar 20
First Quarter
Mar 26
Full
Apr 2
Last Quarter
Apr 9
New
Apr 18
First Quarter

Hourly Weather History & Observations

Time (HST) Temp. Heat Index Dew Point Humidity Pressure Visibility Wind Dir Wind Speed Gust Speed Precip Events Conditions
12:54 AM 62.1 °F - 60.1 °F 93% 30.03 in 10.0 mi SSE 4.6 mph - N/A   Clear
1:54 AM 61.0 °F - 59.0 °F 93% 30.01 in 10.0 mi SSE 3.5 mph - N/A   Clear
2:54 AM 62.1 °F - 59.0 °F 90% 30.00 in 10.0 mi SE 6.9 mph - N/A   Clear
3:54 AM 62.1 °F - 60.1 °F 93% 29.99 in 10.0 mi SE 4.6 mph - N/A   Partly Cloudy
4:54 AM 61.0 °F - 59.0 °F 93% 30.01 in 10.0 mi SE 6.9 mph - N/A   Clear
5:54 AM 61.0 °F - 59.0 °F 93% 30.03 in 10.0 mi SSE 4.6 mph - N/A   Scattered Clouds
6:54 AM 64.0 °F - 60.1 °F 87% 30.04 in 10.0 mi South 3.5 mph - N/A   Scattered Clouds
7:54 AM 69.1 °F - 63.0 °F 81% 30.06 in 10.0 mi Calm Calm - N/A   Scattered Clouds
8:54 AM 75.0 °F - 64.0 °F 69% 30.08 in 10.0 mi Variable 3.5 mph - N/A   Partly Cloudy
9:54 AM 78.1 °F - 66.0 °F 66% 30.08 in 10.0 mi North 5.8 mph - N/A   Partly Cloudy
10:54 AM 80.1 °F 82.7 °F 68.0 °F 67% 30.07 in 10.0 mi NNW 6.9 mph - N/A   Scattered Clouds
11:54 AM 82.0 °F 84.1 °F 66.0 °F 58% 30.05 in 10.0 mi NW 5.8 mph - N/A   Scattered Clouds
12:54 PM 81.0 °F 83.3 °F 66.9 °F 62% 30.03 in 10.0 mi NNE 9.2 mph - N/A   Mostly Cloudy
1:54 PM 80.1 °F 82.1 °F 66.0 °F 62% 30.02 in 10.0 mi NNE 8.1 mph - N/A   Mostly Cloudy
2:54 PM 80.1 °F 82.1 °F 66.0 °F 62% 30.01 in 10.0 mi NNW 6.9 mph - N/A   Mostly Cloudy
3:29 PM 78.8 °F - 66.2 °F 65% 30.00 in 10.0 mi SW 15.0 mph - N/A   Mostly Cloudy
3:54 PM 78.1 °F - 66.9 °F 68% 30.01 in 10.0 mi SSW 13.8 mph - N/A   Mostly Cloudy
4:54 PM 77.0 °F - 64.9 °F 66% 30.02 in 10.0 mi SSW 12.7 mph - N/A   Mostly Cloudy
5:54 PM 75.0 °F - 66.0 °F 73% 30.04 in 10.0 mi South 12.7 mph - N/A   Scattered Clouds
6:54 PM 73.9 °F - 66.0 °F 76% 30.05 in 10.0 mi SSE 5.8 mph - N/A   Mostly Cloudy
7:54 PM 73.0 °F - 66.0 °F 79% 30.06 in 10.0 mi South 5.8 mph - N/A   Overcast
8:54 PM 73.9 °F - 66.0 °F 76% 30.08 in 10.0 mi Calm Calm - N/A   Overcast
9:54 PM 71.1 °F - 66.0 °F 84% 30.09 in 10.0 mi North - - N/A   Scattered Clouds
10:54 PM 71.1 °F - 64.9 °F 81% 30.09 in 10.0 mi SE 3.5 mph - N/A   Overcast
11:54 PM 68.0 °F - 64.9 °F 90% 30.08 in 10.0 mi Calm Calm - N/A   Overcast